Weather History for Eureka, NV

Change the Weather History Date:

Wednesday, June 26, 2013

  Actual Average Record
Temperature  
Mean Temperature 72 °F 64 °F  
Max Temperature 94 °F 84 °F 98 °F (1970)
Min Temperature 50 °F 45 °F 27 °F (1985)
Degree Days  
Heating Degree Days 0 2  
Month to date heating degree days 80 152  
Since 1 June heating degree days 80 152  
Since 1 July heating degree days 6879 7368  
Cooling Degree Days 7 2  
Month to date cooling degree days 44 21  
Year to date cooling degree days 45 24  
Since 1 June cooling degree days 44 21  
Growing Degree Days 22 (Base 50)    
Moisture  
Dew Point 38 °F    
Average Humidity 36    
Maximum Humidity 61    
Minimum Humidity 11    
Precipitation  
Precipitation 0.00 in 0.01 in 0.70 in (1965)
Month to date precipitation 0.03 0.79  
Year to date precipitation 3.13 5.02  
Sea Level Pressure  
Sea Level Pressure 29.91 in    
Wind  
Wind Speed 4 mph (West)    
Max Wind Speed 17 mph    
Max Gust Speed 26 mph    
T = Trace of Precipitation, MM = Missing Value Source: NWS Daily Summary

Daily Weather History Graph

Daily Weather History Graph

Search for Another Location

Airport:

Trip Planner

Search our weather history database for the weather conditions in past years. The results will help you decide how hot, cold, wet, or windy it might be!

Date:

Astronomy

Jun. 26, 2013 Rise Set
Actual Time 5:18 AM PDT 8:15 PM PDT
Civil Twilight 4:45 AM PDT 8:48 PM PDT
Nautical Twilight 4:04 AM PDT 9:29 PM PDT
Astronomical Twilight 3:16 AM PDT 10:17 PM PDT
Moon 10:42 PM PDT (6/26) 9:14 AM PDT (6/26)
Length of Visible Light 16h 02m
Length of Day
14h 57m
Waning Gibbous, 84% of the Moon is Illuminated
Jun 26
Waning Gibbous
Jun 29
Last Quarter
Jul 8
New
Jul 15
First Quarter
Jul 22
Full

Hourly Weather History & Observations

Time (PDT) Temp. Dew Point Humidity Pressure Visibility Wind Dir Wind Speed Gust Speed Precip Events Conditions
12:53 AM 57.9 °F 39.9 °F 51% 29.89 in - SSE 6.9 mph - N/A   Unknown
1:53 AM 55.0 °F 39.9 °F 57% 29.90 in - SSW 3.5 mph - N/A   Unknown
2:53 AM 53.1 °F 37.9 °F 57% 29.91 in - SSW 6.9 mph - N/A   Unknown
3:53 AM 53.1 °F 39.0 °F 59% 29.91 in - Calm Calm - N/A   Unknown
4:53 AM 52.0 °F 37.9 °F 59% 29.93 in - Calm Calm - N/A   Unknown
5:53 AM 50.0 °F 37.0 °F 61% 29.95 in - Calm Calm - N/A   Unknown
6:53 AM 57.0 °F 41.0 °F 55% 29.94 in - SSW 3.5 mph - N/A   Unknown
7:53 AM 66.0 °F 42.1 °F 42% 29.94 in - Calm Calm - N/A   Unknown
8:53 AM 70.0 °F 43.0 °F 38% 29.95 in - Variable 3.5 mph - N/A   Unknown
9:53 AM 75.9 °F 44.1 °F 32% 29.94 in - North 4.6 mph - N/A   Unknown
10:53 AM 79.0 °F 43.0 °F 28% 29.94 in - Calm Calm - N/A   Unknown
11:53 AM 82.9 °F 41.0 °F 23% 29.92 in - Variable 5.8 mph - N/A   Unknown
12:53 PM 86.0 °F 39.9 °F 20% 29.90 in - North - - N/A   Unknown
1:53 PM 89.1 °F 39.0 °F 17% 29.88 in - North 4.6 mph - N/A   Unknown
2:53 PM 89.1 °F 39.9 °F 18% 29.87 in - Variable 4.6 mph - N/A   Unknown
3:53 PM 93.9 °F 37.0 °F 14% 29.85 in - West 9.2 mph 17.3 mph N/A   Unknown
4:53 PM 90.0 °F 34.0 °F 14% 29.86 in - Variable 4.6 mph - N/A   Unknown
5:53 PM 93.0 °F 33.1 °F 12% 29.85 in - NW 8.1 mph - N/A   Unknown
6:53 PM 91.0 °F 30.9 °F 12% 29.86 in - West 9.2 mph - N/A   Unknown
7:53 PM 82.9 °F 37.9 °F 20% 29.88 in - North 12.7 mph - N/A   Unknown
8:53 PM 73.0 °F 37.0 °F 27% 29.93 in - North 5.8 mph - N/A   Unknown
9:53 PM 71.1 °F 35.1 °F 27% 29.96 in - Calm Calm - N/A   Unknown
10:53 PM 66.0 °F 32.0 °F 28% 29.98 in - Calm Calm - N/A   Unknown
11:53 PM 61.0 °F 28.9 °F 30% 30.00 in - SSW 3.5 mph - N/A   Unknown